This is the latest recevied weather packets stored in our database for station/object KI6AOK. If no packets are shown the sender has not sent any weather packets the latest 10 day(s).
| Time | Temp. | Humidity | Pressure | Rain* | Wind** | Luminosity | Snow |
|---|---|---|---|---|---|---|---|
| 1777927713 | 20.56° C | 47% | 1015.6 hPa | 0 mm | - | 867 W/m² | - |
| 1777927411 | 20.56° C | 44% | 1015.7 hPa | 0 mm | - | 799 W/m² | - |
| 1777927110 | 20.56° C | 43% | 1015.5 hPa | 0 mm | - | 798 W/m² | - |
| 1777926807 | 20.56° C | 43% | 1015.8 hPa | 0 mm | - | 813 W/m² | - |
| 1777926502 | 20.56° C | 44% | 1015.7 hPa | 0 mm | - | 770 W/m² | - |
| 1777926200 | 21.11° C | 45% | 1015.6 hPa | 0 mm | - | 851 W/m² | - |
| 1777925896 | 20.56° C | 46% | 1015.7 hPa | 0 mm | - | 878 W/m² | - |
| 1777925594 | 20.56° C | 44% | 1015.8 hPa | 0 mm | - | 815 W/m² | - |
| 1777925291 | 20.56° C | 46% | 1015.8 hPa | 0 mm | - | 841 W/m² | - |
| 1777924987 | 20° C | 49% | 1015.8 hPa | 0 mm | - | 816 W/m² | - |
| 1777924683 | 20.56° C | 45% | 1015.7 hPa | 0 mm | - | 751 W/m² | - |
| 1777924379 | 20° C | 50% | 1015.6 hPa | 0 mm | - | 691 W/m² | - |
| 1777924077 | 19.44° C | 47% | 1015.9 hPa | 0 mm | - | 784 W/m² | - |
| 1777923773 | 20° C | 47% | 1015.8 hPa | 0 mm | - | 673 W/m² | - |
| 1777923469 | 20° C | 48% | 1015.9 hPa | 0 mm | - | 735 W/m² | - |
| 1777923167 | 20.56° C | 49% | 1015.8 hPa | 0 mm | - | 666 W/m² | - |
| 1777922865 | 20° C | 49% | 1016 hPa | 0 mm | - | 763 W/m² | - |
| 1777922562 | 20° C | 50% | 1015.9 hPa | 0 mm | - | 821 W/m² | - |
| 1777922261 | 20° C | 51% | 1016 hPa | 0 mm | - | 844 W/m² | - |
| 1777921958 | 20° C | 51% | 1016 hPa | 0 mm | - | 765 W/m² | - |
| 1777921653 | 19.44° C | 52% | 1016.1 hPa | 0 mm | - | 778 W/m² | - |
| 1777921350 | 19.44° C | 53% | 1016.1 hPa | 0 mm | - | 880 W/m² | - |
| 1777921046 | 20° C | 52% | 1016.3 hPa | 0 mm | - | 328 W/m² | - |
| 1777920743 | 19.44° C | 54% | 1016.3 hPa | 0 mm | - | 375 W/m² | - |
| 1777920439 | 20° C | 52% | 1016.3 hPa | 0 mm | - | 675 W/m² | - |
* Rain latest hour (hover to see other rain measurements)
** Current wind speed in m/s (hover to see current wind gust speed)